[[{"header":{"parameterUnit":"m.s-1","parameterCategory":1,"la1":30.2991,"la2":30.254,"lo1":-89.0895,"lo2":-89.0444,"dy":0.0017,"dx":0.0017,"nx":28,"ny":28,"refTime":"2023-07-23T03:00:00:Z","depth":0,"parameterNumber":2,"parameterNumberName":"U-component_of_WINDS"},"data":[0,0,0,0,0,0,0,0,0,0,0,0,0,0,0,0,0,0,0,0,0,0,0,0,0,0,0,0,0,0,0,0,0,0,0,0,0,0,0,0,0,0,0,0,0,0,0,0,0,0,0,0,0,0,0,0,0,0,1.1901,1.19,0,1.185,1.185,1.1849,1.1795,1.1794,1.1794,1.1793,1.1739,1.1738,1.1737,0,0,0,0,0,0,0,0,0,0,0,0,0,1.1949,1.1948,1.1901,1.19,1.19,1.185,1.185,1.1849,1.1795,1.1794,1.1793,1.1792,1.1739,1.1738,1.1737,0,0,0,0,0,0,0,0,0,0,0,0,0,1.1916,1.1948,1.1901,1.1867,1.1863,1.1851,1.185,1.1849,1.1795,1.1794,1.1793,1.1792,1.1739,1.1738,1.1737,1.1753,0,0,1.1734,1.1733,0,0,0,0,0,0,0,0,1.1918,1.1914,1.1872,1.1869,1.1865,1.1828,1.1847,1.1817,1.1796,1.1821,1.1793,1.1791,1.1769,1.1766,1.1758,1.1751,1.1748,1.1734,1.1733,1.1732,1.1732,0,0,0,0,0,0,0,1.192,1.1916,1.1881,1.1872,1.1867,1.1854,1.1848,1.1841,1.1802,1.1819,1.1815,1.181,1.1767,1.176,1.1757,1.1747,1.1734,1.1733,1.1732,1.1732,1.1751,1.1752,0,0,0,0,0,0,1.1928,1.1919,1.1882,1.1879,1.1889,1.1854,1.1847,1.1841,1.1802,1.1795,1.1811,1.1807,1.1762,1.1758,1.1755,1.1771,1.1732,1.1731,1.1731,1.1749,1.1751,1.1752,0,0,0,0,0,0,1.1929,1.1925,1.1884,1.1898,1.1892,1.1854,1.1848,1.1841,1.1833,1.1796,1.1788,1.1811,1.1761,1.1756,1.1754,1.1768,1.1731,1.173,1.1748,1.175,1.1751,1.1804,0,0,0,0,0,0,1.1931,1.1926,1.1932,1.1898,1.1891,1.1885,1.1849,1.184,1.1832,1.1827,1.1794,1.1787,1.176,1.1756,1.1753,1.1766,1.1729,1.1747,1.1749,1.1751,1.1801,1.1807,1.1813,0,0,0,0,0,1.1933,1.1948,1.1933,1.1929,1.1898,1.1886,1.1882,1.1851,1.1833,1.1839,1.1815,1.1788,1.1768,1.1756,1.1752,1.1766,1.1745,1.1748,1.1751,1.1798,1.1806,1.1813,0,0,0,0,0,0,1.1984,1.1943,1.1926,1.1931,1.1913,1.1877,1.1883,1.186,1.1846,1.1842,1.1803,1.1796,1.1799,1.1782,1.177,1.1779,1.1753,1.1755,1.179,1.1797,1.1803,1.1807,1.1728,0,0,0,0,0,1.1996,1.1991,1.1955,1.1963,1.1955,1.1921,1.1915,1.1893,1.1872,1.1863,1.1839,1.182,1.1809,1.1802,1.179,1.1798,1.179,1.1805,1.1812,1.1817,1.1819,1.1822,1.1829,1.1761,1.1761,1.1761,0,0,1.202,1.1998,1.1996,1.1973,1.1956,1.1951,1.1915,1.1911,1.1906,1.1862,1.1859,1.1841,1.1816,1.182,1.182,1.1806,1.1836,1.182,1.1824,1.1823,1.1826,1.1832,1.1838,1.1762,1.1762,1.1762,0,0,1.2062,1.2045,1.2049,1.2034,1.2009,1.1987,1.1988,1.1957,1.1943,1.194,1.1907,1.1901,1.1883,1.1867,1.1856,1.1893,1.1868,1.189,1.1922,1.1926,1.1931,1.1936,1.1949,1.1954,1.1893,1.1893,1.1893,0,1.2095,1.2087,1.2055,1.2053,1.2044,1.2005,1.2009,1.1996,1.1968,1.1962,1.1947,1.1924,1.1905,1.1904,1.1913,1.1906,1.1906,1.1894,1.1933,1.1937,1.1941,1.1953,1.1958,1.1896,1.1895,1.1895,1.1895,0,1.2129,1.2124,1.2131,1.2106,1.2098,1.2099,1.2067,1.2062,1.2041,1.202,1.2017,1.1992,1.1975,1.1973,1.1952,1.197,1.1962,1.194,1.1913,1.1951,1.1962,1.1966,1.19,1.1899,1.1898,1.1897,0,0,1.2201,1.216,1.2163,1.2151,1.2122,1.2117,1.2117,1.2101,1.2097,1.208,1.2078,1.2065,1.2045,1.2033,1.201,1.2013,1.2044,1.1991,1.199,1.2002,1.2063,1.2079,1.2085,1.2028,1.2029,1.2029,1.2065,0,1.2237,1.2235,1.2207,1.2213,1.2207,1.2171,1.2171,1.2153,1.2133,1.2125,1.2103,1.2094,1.2069,1.2062,1.2064,1.204,1.2056,1.2037,1.2026,1.2026,1.2033,1.209,1.2107,1.2141,1.2069,1.2069,1.207,0,1.228,1.2266,1.2272,1.2243,1.224,1.224,1.2223,1.2217,1.2195,1.2181,1.2168,1.2142,1.214,1.2115,1.211,1.2098,1.2092,1.208,1.208,1.2077,1.205,1.2089,1.2152,1.2157,1.2076,1.2076,1.2075,0,1.2332,1.2315,1.2316,1.2307,1.2274,1.2275,1.2261,1.2238,1.2231,1.2216,1.2211,1.2195,1.2187,1.2176,1.2146,1.213,1.2145,1.2117,1.2133,1.2133,1.2137,1.2137,1.2199,1.2133,1.2133,1.2133,1.2133,0,1.2375,1.238,1.2339,1.234,1.2344,1.2311,1.2316,1.2298,1.2279,1.2275,1.2243,1.224,1.2201,1.2194,1.2171,1.2171,1.2167,1.2155,1.2149,1.2158,1.216,1.2153,1.2149,1.2135,1.2134,1.2134,1.2134,0,1.2434,1.2406,1.2405,1.2374,1.2367,1.2371,1.2344,1.2343,1.2322,1.2318,1.2315,1.2282,1.2272,1.2242,1.2223,1.2208,1.2214,1.2203,1.2222,1.2218,1.2235,1.2234,1.2295,1.2301,1.2232,1.2233,1.2233,0,1.2463,1.2466,1.2436,1.2432,1.242,1.2413,1.2405,1.2373,1.2366,1.2343,1.2345,1.2332,1.232,1.2306,1.2279,1.2265,1.2253,1.2275,1.225,1.226,1.2253,1.2253,1.2253,1.2281,1.2282,1.2282,1.2283,0,1.2519,1.2505,1.2496,1.2482,1.2475,1.2462,1.2447,1.2445,1.2409,1.2403,1.2393,1.2384,1.2366,1.2354,1.2336,1.232,1.2296,1.2291,1.2294,1.2303,1.2314,1.2308,1.2236,1.229,1.2289,1.2289,1.2288,1.2288,1.2564,1.2565,1.2544,1.2535,1.2521,1.2508,1.2506,1.2485,1.2476,1.246,1.2441,1.2433,1.2412,1.2385,1.2372,1.2365,1.2351,1.2356,1.2356,1.2358,1.2362,1.2316,1.2361,1.2361,1.2361,1.2361,1.2361,0,1.2617,1.2602,1.2594,1.2576,1.2568,1.2547,1.253,1.2525,1.2519,1.2501,1.2491,1.2479,1.2467,1.2441,1.2426,1.2426,1.2414,1.2423,1.2422,1.2419,1.2375,1.2374,1.2433,1.2433,1.2433,1.2433,1.2433,1.2433,1.2645,1.2646,1.263,1.2624,1.2608,1.2601,1.2593,1.2581,1.2567,1.2556,1.2546,1.2529,1.2508,1.2492,1.248,1.2473,1.2469,1.2482,1.247,1.2429,1.2422,1.2416,1.2415,1.2481,1.2481,1.2515,1.2516,1.2516]},{"header":{"parameterUnit":"m.s-1","parameterCategory":1,"la1":30.2991,"la2":30.254,"lo1":-89.0895,"lo2":-89.0444,"dy":0.0017,"dx":0.0017,"nx":28,"ny":28,"refTime":"2023-07-23T03:00:00:Z","depth":0,"parameterNumber":3,"parameterNumberName":"V-component_of_WINDS"},"data":[0,0,0,0,0,0,0,0,0,0,0,0,0,0,0,0,0,0,0,0,0,0,0,0,0,0,0,0,0,0,0,0,0,0,0,0,0,0,0,0,0,0,0,0,0,0,0,0,0,0,0,0,0,0,0,0,0,0,-2.0557,-2.0557,0,-2.0598,-2.0599,-2.0599,-2.0557,-2.0555,-2.0554,-2.0552,-2.0594,-2.0597,-2.0599,0,0,0,0,0,0,0,0,0,0,0,0,0,-2.0441,-2.0443,-2.0556,-2.0557,-2.0558,-2.0598,-2.0599,-2.0599,-2.0557,-2.0555,-2.0553,-2.0551,-2.0593,-2.0596,-2.0599,0,0,0,0,0,0,0,0,0,0,0,0,0,-2.0487,-2.0444,-2.0556,-2.0542,-2.0541,-2.0598,-2.0599,-2.0599,-2.0558,-2.0555,-2.0553,-2.0551,-2.0592,-2.0596,-2.06,-2.0674,0,0,-2.0612,-2.0614,0,0,0,0,0,0,0,0,-2.0485,-2.0492,-2.0543,-2.0543,-2.0542,-2.057,-2.0573,-2.0624,-2.0558,-2.0551,-2.0552,-2.0549,-2.0588,-2.0592,-2.0605,-2.0676,-2.0677,-2.0612,-2.0615,-2.0616,-2.0618,0,0,0,0,0,0,0,-2.0482,-2.049,-2.0573,-2.0544,-2.0543,-2.0533,-2.0537,-2.0583,-2.0583,-2.0552,-2.0549,-2.0554,-2.0587,-2.0602,-2.0606,-2.0678,-2.0612,-2.0616,-2.0618,-2.062,-2.0811,-2.0814,0,0,0,0,0,0,-2.048,-2.0487,-2.0572,-2.0574,-2.0507,-2.0537,-2.0541,-2.0563,-2.0582,-2.0583,-2.0556,-2.0552,-2.0596,-2.0601,-2.0607,-2.0695,-2.0616,-2.062,-2.0622,-2.0809,-2.0812,-2.0815,0,0,0,0,0,0,-2.0478,-2.0488,-2.057,-2.053,-2.054,-2.0541,-2.0567,-2.0565,-2.058,-2.0586,-2.0586,-2.0571,-2.0594,-2.0602,-2.0658,-2.0696,-2.0622,-2.0626,-2.0805,-2.081,-2.0813,-2.0871,0,0,0,0,0,0,-2.0475,-2.0487,-2.0516,-2.0531,-2.0542,-2.062,-2.0569,-2.0568,-2.0587,-2.0582,-2.06,-2.06,-2.0593,-2.0652,-2.0662,-2.07,-2.0629,-2.0802,-2.0807,-2.0812,-2.0866,-2.0877,-2.0886,0,0,0,0,0,-2.0471,-2.053,-2.0517,-2.0528,-2.0577,-2.0622,-2.0628,-2.0619,-2.059,-2.0618,-2.0622,-2.06,-2.069,-2.0658,-2.0669,-2.0709,-2.08,-2.0806,-2.0812,-2.0861,-2.0875,-2.0886,0,0,0,0,0,0,-2.0518,-2.0532,-2.0518,-2.0584,-2.0602,-2.0615,-2.065,-2.0633,-2.066,-2.0654,-2.0641,-2.0646,-2.0705,-2.0712,-2.0676,-2.0781,-2.074,-2.0749,-2.0774,-2.0787,-2.0797,-2.0794,-2.0632,0,0,0,0,0,-2.0537,-2.0572,-2.0582,-2.0639,-2.0649,-2.0648,-2.0668,-2.0659,-2.0677,-2.0685,-2.0693,-2.0712,-2.0744,-2.0766,-2.0796,-2.0867,-2.087,-2.09,-2.091,-2.0918,-2.0926,-2.0964,-2.0977,-2.0835,-2.0835,-2.0835,0,0,-2.0575,-2.0586,-2.061,-2.0649,-2.0662,-2.07,-2.0655,-2.0696,-2.0724,-2.0691,-2.0745,-2.0751,-2.0771,-2.0835,-2.0863,-2.0843,-2.0966,-2.0926,-2.0932,-2.0935,-2.0971,-2.0985,-2.0997,-2.0839,-2.0838,-2.0838,0,0,-2.0663,-2.0676,-2.0725,-2.0739,-2.076,-2.0759,-2.0771,-2.0787,-2.079,-2.0844,-2.082,-2.0853,-2.0909,-2.0924,-2.094,-2.1035,-2.1015,-2.1045,-2.1098,-2.1135,-2.1146,-2.1156,-2.119,-2.1203,-2.1052,-2.1053,-2.1053,0,-2.0708,-2.0763,-2.0752,-2.0795,-2.0813,-2.0786,-2.0836,-2.0851,-2.088,-2.0894,-2.087,-2.0941,-2.0953,-2.102,-2.1043,-2.1056,-2.107,-2.1043,-2.1146,-2.1155,-2.1164,-2.1197,-2.121,-2.1056,-2.1056,-2.1055,-2.1055,0,-2.0817,-2.0855,-2.0893,-2.0923,-2.0945,-2.0991,-2.0988,-2.1012,-2.1001,-2.1003,-2.1058,-2.1071,-2.1104,-2.1119,-2.1109,-2.1185,-2.1172,-2.1148,-2.1106,-2.1182,-2.1212,-2.1224,-2.1061,-2.106,-2.1059,-2.1058,0,0,-2.0936,-2.096,-2.0974,-2.0987,-2.1009,-2.1038,-2.1083,-2.1116,-2.1137,-2.1158,-2.1196,-2.1245,-2.1223,-2.124,-2.1232,-2.1265,-2.1339,-2.1236,-2.1236,-2.1255,-2.1424,-2.1443,-2.1457,-2.1327,-2.1329,-2.1331,-2.1423,0,-2.1025,-2.1103,-2.1095,-2.117,-2.1206,-2.1181,-2.1221,-2.1238,-2.1241,-2.1272,-2.1275,-2.131,-2.1278,-2.1288,-2.1319,-2.1324,-2.1373,-2.1317,-2.1361,-2.1363,-2.1357,-2.1473,-2.1492,-2.1579,-2.1434,-2.1436,-2.1438,0,-2.1139,-2.1165,-2.1244,-2.126,-2.1275,-2.1311,-2.134,-2.137,-2.1389,-2.1389,-2.1409,-2.1395,-2.1441,-2.1398,-2.1461,-2.1423,-2.1441,-2.1446,-2.1449,-2.1452,-2.1405,-2.148,-2.1606,-2.1619,-2.1456,-2.1455,-2.1454,0,-2.1218,-2.1273,-2.1327,-2.134,-2.136,-2.1386,-2.1396,-2.1413,-2.1433,-2.1459,-2.1472,-2.1502,-2.1519,-2.1543,-2.1538,-2.1507,-2.1602,-2.1559,-2.1603,-2.1603,-2.1624,-2.1623,-2.1755,-2.1636,-2.1635,-2.1635,-2.1635,0,-2.1318,-2.1367,-2.1363,-2.1397,-2.1451,-2.1442,-2.1496,-2.1502,-2.1518,-2.1552,-2.1532,-2.1565,-2.1556,-2.1588,-2.1584,-2.1637,-2.1644,-2.1646,-2.1644,-2.1648,-2.1647,-2.1659,-2.1653,-2.1638,-2.1638,-2.1637,-2.1636,0,-2.1416,-2.1415,-2.1473,-2.1488,-2.1493,-2.1532,-2.1545,-2.1576,-2.1578,-2.1622,-2.1631,-2.1634,-2.1671,-2.1668,-2.1709,-2.1707,-2.1772,-2.1763,-2.1766,-2.1764,-2.1808,-2.1804,-2.1952,-2.1971,-2.184,-2.1841,-2.1842,0,-2.148,-2.1517,-2.1536,-2.1558,-2.157,-2.1605,-2.1626,-2.1618,-2.164,-2.1666,-2.1694,-2.173,-2.1757,-2.1818,-2.1823,-2.1855,-2.1847,-2.1896,-2.1851,-2.1854,-2.1848,-2.1846,-2.185,-2.1905,-2.1907,-2.1908,-2.1909,0,-2.1594,-2.1592,-2.1622,-2.1653,-2.1679,-2.1703,-2.1725,-2.1743,-2.1738,-2.1764,-2.1802,-2.1824,-2.1867,-2.1902,-2.1932,-2.1942,-2.1925,-2.1923,-2.1935,-2.1939,-2.1939,-2.194,-2.179,-2.192,-2.1919,-2.1918,-2.1917,-2.1917,-2.1676,-2.1709,-2.1727,-2.1763,-2.1778,-2.1799,-2.183,-2.1836,-2.1867,-2.1902,-2.1895,-2.1938,-2.1957,-2.1996,-2.2009,-2.2042,-2.2024,-2.2041,-2.2046,-2.205,-2.2056,-2.1934,-2.2048,-2.2047,-2.2047,-2.2047,-2.2046,0,-2.1789,-2.18,-2.1833,-2.1864,-2.1892,-2.1874,-2.1897,-2.1922,-2.196,-2.1979,-2.2007,-2.2051,-2.2085,-2.2094,-2.2127,-2.2152,-2.2145,-2.2161,-2.2159,-2.2162,-2.2069,-2.2056,-2.2166,-2.2166,-2.2166,-2.2166,-2.2166,-2.2166,-2.1851,-2.1905,-2.1906,-2.1967,-2.1977,-2.2019,-2.2035,-2.2054,-2.2069,-2.2119,-2.2148,-2.2153,-2.2169,-2.2203,-2.2233,-2.2235,-2.2248,-2.2267,-2.2266,-2.218,-2.2168,-2.2156,-2.2144,-2.227,-2.2271,-2.2355,-2.2356,-2.2357]}]]